Temperature
17 17 17 17 17 17 16 16 16 16 16 16 16 16 16 16 16 16 16 15 15 15 15 15 15 15 15 15 15 15 15 15 15 15 15 15 15 15 15 15 14 14 15
18 17 17 17 17 16 16 16 16 16 16 16 16 16 16 16 16 16 16 15 15 15 15 15 15 15 15 15 15 15 15 15 15 15 15 15 15 14 15 15 14 14 15
18 17 17 17 17 17 16 16 16 16 16 16 16 16 16 16 16 16 16 16 15 15 15 15 15 15 15 15 15 15 15 15 15 15 14 14 14 14 14 14 14 14 14
18 17 17 17 17 17 16 16 16 16 16 16 16 16 16 16 16 16 16 16 16 15 15 15 15 15 15 15 15 15 15 15 15 14 14 14 14 14 14 14 14 14 14
17 17 16 17 17 16 16 16 16 16 16 16 16 16 16 16 16 16 16 16 16 16 16 16 15 16 15 15 15 15 15 15 15 14 14 14 14 14 14 14 14 14 14
16 16 16 16 16 16 16 16 16 16 16 16 16 16 16 15 16 16 16 16 16 16 16 15 15 15 15 15 15 15 15 15 14 14 14 14 14 14 15 15 15 14 14
16 16 16 16 16 16 16 16 16 16 16 16 16 16 16 15 16 16 16 16 16 16 16 15 15 15 15 15 15 15 15 15 14 14 13 14 14 14 14 15 15 15 14
16 16 16 16 16 16 16 16 16 16 16 16 16 16 16 16 16 16 16 16 16 16 15 15 15 15 15 15 15 15 15 15 14 14 14 14 14 14 14 14 14 14 14
16 16 16 16 16 16 16 16 16 16 16 16 16 16 16 16 16 16 16 16 16 16 15 15 15 15 15 15 15 15 15 15 13 14 13 14 14 14 14 14 14 14 14
15 15 16 16 15 15 16 16 16 16 16 16 16 16 16 16 16 16 16 16 16 16 16 15 15 15 15 15 15 15 15 14 13 13 13 14 14 14 14 14 14 14 14
15 15 15 15 15 15 15 16 16 16 16 16 16 16 16 15 15 16 16 16 16 16 16 16 15 15 15 15 15 15 14 13 13 13 13 14 14 14 14 14 14 14 14
15 15 15 15 15 15 15 15 15 15 16 15 15 16 15 15 15 15 16 16 16 16 16 16 15 15 15 14 15 15 14 13 13 13 13 14 14 14 14 14 14 14 14
15 15 15 15 15 15 15 15 15 15 15 15 15 15 15 15 15 15 15 15 15 15 15 15 15 15 14 14 14 14 14 13 13 13 13 14 14 14 14 14 13 13 13
15 15 15 15 15 15 15 15 15 15 15 15 15 15 15 15 15 15 15 15 15 15 15 15 14 14 14 14 14 14 13 13 13 13 13 14 14 13 13 13 13 13 13
15 15 15 15 15 15 15 15 15 15 15 15 15 15 15 15 15 15 15 15 15 15 15 15 14 14 14 14 14 14 14 13 13 13 13 14 13 13 13 13 13 13 13
16 15 15 15 15 15 15 15 15 15 15 15 15 15 15 15 15 15 15 15 15 15 14 14 14 14 14 13 13 13 13 13 13 13 13 13 13 13 13 13 12 12 12
16 16 15 15 15 15 15 15 15 15 15 15 15 15 15 15 15 15 15 15 14 14 14 14 14 14 14 14 14 13 13 13 13 13 13 13 13 13 13 12 12 12 12
16 16 16 15 15 15 15 15 15 15 15 15 15 15 15 15 15 15 15 15 14 14 14 14 13 13 13 13 13 13 13 13 13 13 13 13 13 13 13 12 12 12 11
16 16 16 15 15 15 15 15 15 14 14 14 14 15 15 14 15 14 14 14 14 14 14 13 13 13 13 13 13 13 13 13 13 13 13 13 13 13 12 12 12 12 11
16 16 16 16 15 15 15 15 15 14 14 14 14 14 14 14 14 14 14 14 14 14 14 13 13 13 13 13 13 13 13 13 13 13 13 13 13 13 12 12 12 12 11
16 16 16 16 16 15 15 15 15 15 15 14 14 14 14 14 14 14 14 14 14 13 13 13 13 13 13 12 12 12 12 13 13 13 13 13 13 13 12 12 12 12 11
16 16 16 16 16 15 15 15 15 15 15 14 14 14 14 14 14 14 14 14 13 13 13 13 13 13 12 12 12 11 12 12 13 13 13 13 13 12 12 12 12 11 11
16 16 16 16 16 16 15 15 15 14 14 14 14 14 14 14 14 14 14 13 13 13 13 13 13 13 12 12 12 11 11 12 12 12 12 12 12 12 12 11 11 11 11
16 16 16 16 16 16 15 15 15 14 14 14 15 15 14 14 14 14 14 13 13 13 13 13 13 13 12 12 12 12 11 11 11 11 11 11 11 11 11 11 11 10 10
15 15 16 16 16 16 15 15 15 15 14 14 14 14 14 14 14 14 13 13 13 13 13 13 13 12 12 12 11 11 11 11 10 10 10 10 10 11 11 10 10 10 10
15 15 15 15 15 15 15 15 15 15 14 14 14 14 14 14 14 13 13 13 13 13 13 13 12 12 12 11 11 11 11 10 10 10 10 10 10 10 10 10 10 9 9
Wind_Speed
15 20 24 22 20 20 20 20 19 18 18 17 16 15 14 14 13 13 13 14 14 15 16 16 17 17 17 17 17 17 17 17 17 16 16 15 15 15 14 11 10 14 14
19 23 24 23 21 20 20 19 19 18 17 16 16 15 14 14 13 13 13 14 14 15 16 17 16 16 17 17 17 17 17 16 15 14 12 14 14 14 14 14 14 14 14
21 23 24 23 22 21 20 19 18 17 17 16 15 14 14 13 13 13 14 14 14 15 16 16 16 16 16 16 16 16 15 14 12 8 6 11 13 14 15 15 15 14 15
21 22 23 23 22 21 20 19 18 17 16 15 15 14 13 14 13 13 14 14 14 15 16 16 16 16 15 15 15 14 14 12 9 4 8 11 12 13 14 14 15 15 15
20 21 22 23 22 21 20 19 18 17 16 15 14 13 13 13 13 14 14 14 14 15 15 15 15 15 15 14 14 13 13 11 8 8 11 11 12 13 14 14 13 13 14
19 20 22 22 21 21 19 18 17 16 15 14 13 13 13 13 13 14 14 14 14 14 14 14 14 14 13 13 13 12 11 7 7 10 10 10 11 12 12 12 12 12 12
18 18 22 22 21 20 19 18 17 16 15 14 13 13 13 13 13 14 14 13 13 13 13 13 13 13 12 12 12 11 10 6 8 9 9 10 12 11 11 11 11 11 11
17 17 21 21 21 20 18 17 16 16 15 14 13 12 12 13 13 13 13 13 12 12 12 11 11 11 11 11 10 10 8 4 7 8 8 10 10 10 10 10 10 10 10
16 16 18 20 20 19 18 17 16 15 14 13 12 11 13 14 13 12 12 11 11 11 11 10 10 10 10 10 9 8 7 4 5 6 7 8 8 8 8 8 8 8 8
14 15 16 17 18 18 17 16 16 16 14 13 12 12 13 14 13 12 11 10 10 10 9 9 9 9 9 8 8 7 5 2 5 5 5 6 6 6 6 6 6 7 7
14 14 14 15 16 16 15 16 16 15 14 13 12 13 13 11 11 10 9 10 9 9 8 8 8 8 8 7 7 6 3 1 3 3 3 5 3 3 4 4 4 5 5
16 15 13 14 14 14 13 14 13 12 12 11 11 12 10 9 8 8 11 9 8 8 8 7 8 8 6 5 6 5 2 1 1 1 2 2 1 1 2 2 3 3 3
15 15 14 13 14 13 11 11 10 10 10 10 10 10 9 8 8 8 8 9 8 8 7 7 7 5 4 3 3 3 2 2 1 1 2 3 3 2 2 3 3 3 2
14 15 14 13 13 13 12 10 10 9 9 8 9 10 9 7 7 7 7 7 7 6 6 6 5 5 4 4 4 4 3 3 3 3 2 4 5 5 5 5 5 5 4
14 15 15 14 13 13 11 9 9 9 9 9 9 10 9 8 7 7 6 6 7 6 6 5 6 5 5 5 5 5 5 5 5 5 4 6 8 8 8 7 7 8 7
14 15 14 15 14 13 11 10 9 10 9 9 9 10 10 9 8 7 7 7 6 6 6 6 6 5 5 5 6 6 7 7 7 7 7 7 10 11 11 11 10 10 10
14 14 14 14 13 13 12 11 10 10 10 9 9 11 11 10 9 8 7 6 7 7 7 6 6 6 5 5 6 7 7 8 8 9 9 8 8 12 14 13 13 12 12
13 13 13 11 13 13 12 11 10 10 10 9 10 10 12 12 11 9 7 7 8 8 7 6 6 6 6 6 6 6 7 7 10 10 10 10 9 9 12 15 15 14 14
12 13 13 13 13 13 12 10 10 9 9 9 9 10 11 12 12 10 8 8 9 8 7 6 6 6 6 7 7 6 7 7 8 9 11 11 11 11 10 11 15 16 15
11 12 13 13 13 12 10 8 6 7 7 8 9 9 11 12 12 11 9 10 10 7 7 7 8 7 7 7 6 7 8 8 8 9 10 11 11 11 11 11 10 12 16
9 11 12 13 12 11 8 8 7 8 7 7 7 9 11 11 11 11 8 9 9 8 9 9 8 8 8 6 6 7 9 10 10 9 9 9 9 10 10 10 10 9 9
9 10 11 12 12 11 9 8 6 6 6 7 7 8 10 11 11 10 10 8 9 8 10 10 9 6 6 6 6 6 6 6 7 7 7 6 7 7 8 8 9 9 9
7 9 9 10 10 11 10 7 4 4 3 5 7 7 9 11 11 11 11 10 9 9 9 10 10 10 8 8 8 7 6 5 4 4 5 5 5 5 5 6 7 7 8
7 6 8 8 9 9 10 9 10 8 8 8 6 7 7 9 9 10 10 10 9 8 9 9 9 9 9 8 7 8 9 7 6 5 4 4 4 4 4 3 4 5 5
6 5 6 7 8 8 9 10 10 9 8 6 6 7 7 7 8 9 9 9 8 8 9 9 9 9 8 9 7 6 8 8 9 8 8 6 4 3 3 3 3 3 3
5 5 6 7 7 7 9 9 10 10 9 8 8 7 6 5 5 7 7 7 7 7 8 8 8 9 9 9 8 7 6 6 7 8 10 8 7 4 2 1 2 2 3
Wind_Direction
159 155 151 150 146 141 137 135 133 131 129 126 124 121 116 111 107 104 99 96 98 100 99 100 98 96 94 92 89 87 85 83 80 77 74 72 70 71 67 58 62 70 64
154 154 151 151 149 145 141 137 135 132 130 128 126 123 119 114 109 106 104 100 99 101 99 98 96 96 94 92 89 87 86 84 82 80 85 84 73 71 68 60 57 66 66
152 154 154 152 150 147 143 139 137 134 132 130 127 124 121 117 111 107 104 101 100 100 98 97 95 95 95 93 91 87 85 83 81 81 92 86 80 72 71 67 66 67 65
153 155 158 152 151 148 145 142 140 137 134 132 130 127 122 118 114 110 106 102 101 100 97 96 95 95 94 94 91 87 84 81 76 72 79 77 79 73 69 65 63 63 62
154 157 153 152 152 148 147 145 142 139 136 134 132 129 125 120 116 112 109 106 105 103 100 99 98 95 94 93 91 88 85 82 80 77 77 76 76 71 67 63 61 60 60
156 156 153 154 151 149 148 146 145 143 139 136 134 133 129 124 118 115 112 110 109 107 104 103 101 97 95 94 91 89 87 82 91 78 73 71 74 71 68 65 63 62 60
156 155 155 155 151 150 149 149 147 145 142 140 138 138 134 128 122 119 119 117 115 113 109 107 104 100 97 96 94 91 85 64 76 77 70 70 71 70 69 67 66 64 62
156 155 156 154 151 151 151 150 148 146 145 145 144 143 140 133 127 126 125 124 123 120 116 111 108 105 101 98 97 94 86 71 83 76 72 73 69 69 69 69 68 66 65
158 158 159 161 157 153 152 151 149 146 147 148 147 144 142 136 133 132 131 130 128 124 120 116 113 110 107 104 102 99 92 73 83 78 75 74 71 69 70 71 70 69 68
163 164 164 166 165 163 160 153 150 149 148 148 145 140 138 139 137 137 140 133 130 127 124 121 118 115 112 111 110 111 118 155 87 90 79 82 76 74 74 74 74 74 73
171 171 170 168 168 167 165 157 155 152 151 151 149 146 151 157 153 154 143 137 133 131 131 130 126 122 122 122 123 133 171 120 92 75 80 87 86 83 85 85 86 84 83
177 177 175 174 170 169 163 163 165 163 163 169 163 164 171 165 158 149 139 144 139 137 136 134 134 145 170 156 150 180 195 180 138 116 103 119 149 126 126 125 115 111 108
181 180 181 178 175 172 167 169 169 168 167 172 170 172 172 166 161 163 160 158 161 164 165 153 172 184 194 186 194 207 225 244 246 221 169 180 234 226 206 191 181 175 170
185 186 184 182 180 179 174 174 175 174 174 175 177 178 177 176 180 180 181 176 179 185 183 192 203 196 205 209 221 227 229 240 250 256 223 211 243 245 235 225 216 212 209
190 191 189 188 187 183 179 177 183 183 185 182 180 186 188 187 190 188 192 191 196 196 196 204 212 210 220 226 232 242 247 250 251 252 242 221 237 245 244 239 234 228 224
195 195 193 193 193 190 186 185 189 190 188 188 188 194 195 196 197 196 200 201 206 209 211 214 219 222 230 238 244 245 249 251 252 254 258 238 230 237 243 244 242 239 235
200 197 196 196 197 196 195 191 192 192 193 194 195 199 200 202 202 203 208 208 212 215 216 222 224 233 240 244 249 252 255 255 253 253 254 255 245 233 235 242 245 244 242
203 200 198 195 198 198 197 194 194 196 196 198 199 200 205 207 207 207 212 216 217 216 218 221 227 232 237 243 250 251 252 252 256 256 254 250 251 247 236 234 241 244 245
206 203 199 198 199 198 197 197 198 197 200 202 201 203 206 210 209 211 217 220 216 218 221 223 231 236 243 247 253 258 257 254 255 253 254 253 249 247 250 238 236 242 246
208 207 204 201 202 197 194 194 196 200 203 205 204 206 207 210 211 213 218 222 218 219 222 222 228 233 245 254 259 261 260 257 253 251 252 253 249 246 248 252 246 242 240
201 205 205 203 201 193 189 191 196 204 203 204 208 211 208 210 209 212 217 221 216 220 225 227 229 234 237 241 254 265 261 252 250 247 247 250 248 246 248 250 251 253 247
195 201 203 203 198 194 195 195 200 201 208 209 207 213 213 213 210 211 217 220 217 222 227 228 223 230 234 220 234 262 276 262 236 237 239 241 249 245 245 248 250 251 256
193 198 200 199 194 194 194 189 181 185 191 201 209 213 215 214 214 215 220 224 224 224 228 226 220 224 233 225 224 235 253 265 285 226 227 233 240 243 248 249 251 255 257
196 193 200 196 193 193 192 194 198 205 214 214 210 211 213 214 217 220 223 225 227 226 232 231 226 225 232 237 229 234 245 268 269 272 233 226 236 248 252 252 259 261 263
194 190 194 193 194 191 194 199 205 215 221 214 208 212 214 214 217 220 224 225 229 230 233 234 231 229 229 236 233 228 237 245 247 255 267 254 238 237 251 261 268 272 276
191 185 189 187 191 192 196 201 206 212 213 210 211 214 215 214 215 220 224 228 232 233 234 235 233 231 232 236 237 232 230 233 233 236 251 258 257 243 234 251 270 282 290
Height
1534 1536 1539 1543 1546 1548 1551 1553 1554 1555 1556 1556 1557 1557 1557 1557 1557 1558 1558 1558 1558 1559 1560 1560 1561 1561 1562 1562 1562 1563 1563 1563 1563 1564 1564 1564 1564 1564 1563 1563 1563 1562 1561
1532 1536 1539 1543 1546 1549 1552 1554 1555 1556 1557 1558 1558 1558 1559 1559 1559 1560 1560 1560 1560 1561 1562 1562 1563 1563 1564 1564 1564 1565 1565 1566 1566 1566 1566 1567 1566 1566 1566 1565 1565 1565 1564
1533 1537 1540 1544 1547 1550 1552 1555 1556 1558 1558 1559 1560 1560 1561 1561 1561 1562 1562 1562 1563 1563 1564 1564 1565 1565 1566 1566 1567 1567 1568 1568 1569 1569 1569 1570 1569 1569 1569 1568 1567 1567 1566
1534 1538 1541 1544 1548 1551 1553 1556 1557 1559 1560 1561 1561 1562 1563 1563 1563 1564 1564 1564 1565 1565 1566 1567 1567 1568 1568 1569 1569 1569 1570 1570 1571 1571 1572 1572 1572 1571 1571 1570 1570 1569 1568
1535 1539 1542 1545 1549 1552 1554 1556 1558 1560 1561 1562 1563 1563 1564 1565 1565 1566 1566 1566 1567 1567 1568 1569 1569 1570 1570 1571 1571 1572 1572 1573 1573 1574 1574 1574 1573 1573 1572 1572 1571 1570 1570
1536 1540 1543 1546 1550 1553 1555 1557 1559 1561 1562 1563 1564 1565 1566 1566 1567 1567 1568 1569 1569 1570 1570 1571 1572 1572 1573 1573 1574 1574 1575 1575 1576 1576 1576 1576 1575 1574 1574 1573 1572 1571 1570
1537 1541 1544 1547 1551 1554 1556 1558 1560 1561 1563 1564 1565 1566 1567 1568 1568 1569 1570 1570 1571 1572 1572 1573 1574 1574 1575 1576 1576 1576 1577 1577 1578 1578 1578 1577 1576 1576 1575 1574 1573 1572 1571
1538 1541 1545 1548 1552 1554 1557 1559 1560 1562 1563 1565 1566 1567 1568 1569 1570 1571 1571 1572 1573 1574 1574 1575 1576 1576 1577 1578 1578 1578 1579 1579 1579 1579 1579 1578 1577 1577 1576 1575 1574 1573 1572
1539 1542 1545 1549 1552 1555 1557 1559 1561 1563 1564 1565 1567 1568 1569 1570 1571 1572 1573 1574 1574 1575 1576 1577 1577 1578 1579 1579 1580 1580 1580 1580 1581 1580 1580 1579 1578 1578 1577 1576 1575 1574 1573
1539 1543 1546 1549 1552 1555 1557 1559 1561 1563 1564 1566 1567 1568 1569 1571 1572 1573 1574 1575 1576 1576 1577 1578 1579 1579 1580 1580 1581 1581 1581 1581 1582 1581 1581 1580 1579 1578 1578 1577 1576 1575 1574
1539 1543 1546 1549 1552 1555 1557 1559 1561 1563 1564 1566 1567 1568 1570 1571 1573 1574 1575 1576 1576 1577 1578 1579 1579 1580 1581 1581 1581 1582 1582 1583 1583 1582 1581 1580 1580 1579 1578 1577 1576 1576 1575
1538 1542 1545 1548 1551 1554 1556 1559 1561 1563 1564 1566 1567 1569 1570 1572 1573 1574 1574 1576 1577 1577 1578 1579 1580 1581 1581 1582 1582 1582 1583 1583 1583 1582 1581 1580 1580 1579 1578 1578 1577 1576 1575
1538 1541 1544 1547 1550 1553 1555 1558 1560 1562 1564 1565 1567 1568 1570 1571 1572 1573 1575 1575 1576 1577 1578 1579 1580 1581 1581 1582 1582 1582 1582 1583 1583 1582 1581 1580 1579 1579 1578 1577 1577 1576 1575
1537 1540 1543 1546 1549 1552 1554 1557 1559 1561 1563 1564 1566 1567 1569 1570 1571 1573 1574 1575 1576 1577 1578 1579 1580 1580 1581 1581 1581 1582 1582 1582 1581 1581 1580 1579 1579 1578 1577 1577 1576 1575 1575
1536 1538 1541 1544 1547 1550 1553 1555 1558 1560 1562 1563 1565 1566 1568 1569 1570 1572 1573 1574 1575 1576 1577 1578 1579 1579 1580 1580 1580 1580 1580 1580 1580 1579 1579 1578 1577 1577 1576 1576 1575 1574 1574
1534 1537 1540 1542 1546 1549 1551 1554 1556 1558 1560 1562 1563 1565 1566 1568 1569 1570 1571 1572 1574 1575 1576 1576 1577 1578 1578 1578 1579 1578 1578 1578 1578 1577 1577 1576 1575 1575 1574 1574 1573 1573 1572
1532 1535 1538 1540 1543 1546 1549 1552 1554 1556 1558 1560 1561 1563 1564 1566 1567 1568 1569 1571 1572 1573 1573 1574 1575 1575 1576 1576 1576 1576 1576 1576 1575 1575 1574 1574 1573 1572 1572 1572 1571 1570 1570
1530 1533 1536 1538 1541 1544 1547 1549 1552 1554 1556 1558 1559 1561 1562 1563 1565 1566 1567 1568 1570 1570 1571 1572 1573 1573 1573 1574 1574 1573 1573 1572 1572 1572 1571 1571 1570 1570 1569 1569 1568 1568 1567
1528 1530 1533 1536 1538 1541 1544 1547 1550 1552 1554 1556 1557 1558 1560 1561 1562 1563 1564 1566 1567 1568 1568 1569 1570 1570 1571 1571 1571 1570 1570 1569 1569 1568 1568 1567 1567 1566 1566 1565 1565 1564 1564
1525 1528 1531 1533 1536 1539 1542 1544 1547 1549 1551 1553 1554 1556 1557 1558 1559 1560 1562 1563 1564 1564 1565 1566 1566 1567 1567 1568 1567 1566 1566 1565 1564 1564 1564 1564 1563 1562 1562 1561 1561 1560 1560
1521 1525 1527 1530 1533 1536 1538 1541 1543 1545 1547 1549 1551 1553 1554 1555 1556 1557 1558 1559 1560 1561 1562 1562 1563 1563 1563 1564 1564 1563 1562 1561 1560 1560 1560 1559 1559 1558 1558 1557 1557 1556 1555
1518 1521 1524 1527 1530 1533 1535 1538 1540 1542 1544 1546 1548 1549 1551 1552 1553 1553 1554 1556 1556 1557 1558 1558 1559 1559 1559 1560 1560 1560 1559 1558 1555 1555 1555 1555 1555 1554 1554 1553 1553 1552 1551
1515 1518 1521 1524 1526 1529 1532 1535 1536 1538 1540 1542 1543 1545 1546 1548 1549 1549 1550 1551 1552 1553 1553 1554 1554 1554 1555 1555 1555 1556 1556 1554 1553 1551 1550 1550 1550 1550 1549 1549 1548 1547 1547
1512 1515 1518 1520 1523 1526 1528 1531 1532 1534 1536 1538 1539 1541 1542 1543 1544 1545 1546 1547 1547 1548 1548 1549 1549 1549 1549 1549 1550 1550 1550 1550 1550 1547 1546 1545 1545 1545 1545 1544 1543 1542 1541
1508 1511 1514 1517 1519 1522 1524 1526 1528 1530 1533 1534 1535 1536 1538 1538 1539 1539 1540 1541 1542 1542 1542 1543 1543 1543 1543 1544 1544 1543 1544 1544 1543 1543 1541 1541 1540 1539 1539 1538 1538 1537 1536
1504 1507 1510 1513 1515 1518 1520 1522 1524 1526 1528 1529 1531 1532 1532 1533 1533 1534 1535 1535 1536 1536 1536 1537 1537 1537 1537 1537 1537 1537 1537 1537 1537 1536 1535 1534 1534 1534 1533 1532 1532 1531 1530